User: anonymous
Location: Fort Wayne
(41.1310°N, 85.1290°W)
Time: 17:13:14
(UTC-04:00)
Language:

Cosmos 1953 - Orbit

View from above orbital plane
View from above orbital plane
View from above satellite
View from above satellite

Ground track
Ground track

The orbit data is extracted from the following two-line orbital elements,

1 19210U 88050A   14292.71039722  .00005736  00000-0  43062-3 0  5459
2 19210 082.5181 253.8584 0013408 336.7240 023.3377 15.02386705431781
Epoch (UTC): 19 October 2014 17:02:58
Eccentricity: 0.0013408
inclination: 82.5181°
perigee height: 550 km
apogee height: 569 km
right ascension of ascending node: 253.8584°
argument of perigee: 336.7240°
revolutions per day: 15.02386705
mean anomaly at epoch: 23.3377°
orbit number at epoch: 43178

The dashed part of the orbit path shows where the satellite is in the earth's shadow,  

DLR